{"data":{"norad_id":81838,"intl_designator":"","name":"UNKNOWN","alt_names":[],"object_type":"UNKNOWN","status":"UNKNOWN","operator":null,"country":null,"launch_date":null,"launch_site_code":null,"launch_vehicle":null,"mission":null,"orbit_class":"UNKNOWN","rcs_meters":null,"size_class":null,"mass_kg":null,"dimensions":null,"purposes":[],"wikipedia_slug":null,"has_3d_model":false,"image_url":null,"decayed_at":null,"tle_current":{"epoch":"2026-05-22T14:42:15.645312Z","epoch_age_seconds":281651,"freshness":"STALE","line1":"1 81838U          26142.61268108  .00003014  00000+0  65097-3 0  9992","line2":"2 81838  67.7583 204.9627 0042653 221.3866 289.4859 14.59055347656784","mean_motion":14.59055347,"eccentricity":0.0042653,"inclination_deg":67.7583,"raan_deg":204.9627,"arg_perigee_deg":221.3866,"mean_anomaly_deg":289.4859,"bstar":0.00065097,"rev_number":65678,"period_min":98.693994231324,"perigee_km":666.05155309824,"apogee_km":726.40011268048,"semimajor_km":7074.3628328894,"source":"CELESTRAK","updated_at":"2026-05-25T13:38:11.085707Z"}}}